Regional Weather Roundup
Issued by NWS Little Rock, AR

Home | Current Version | Previous Version | Graphics & Text | Print | Product List | Glossary On
Versions: 1 2 3 4 5 6 7 8 9 10 11 12 13 14 15 16 17 18 19 20 21 22 23 24 25 26 27 28 29 30 31 32 33 34 35 36 37 38 39 40 41 42 43 44 45 46 47 48 49 50
000
ASUS44 KLZK 260405
RWRLZK

WEATHER ROUNDUP FOR ARKANSAS
NATIONAL WEATHER SERVICE LITTLE ROCK AR
1000 PM CST SAT FEB 25 2017

NOTE: "FAIR" INDICATES FEW OR NO CLOUDS BELOW 12,000 FEET WITH NO
SIGNIFICANT WEATHER AND/OR OBSTRUCTIONS TO VISIBILITY.

ARZ001-003-010-029-260500-
NORTHWEST ARKANSAS

CITY           SKY/WX    TMP DP  RH WIND       PRES   REMARKS
FAYETTEVILLE   CLEAR     28  20  71 S5        30.10S WCI  23
FORT SMITH     CLEAR     36  24  62 CALM      30.12S
HARRISON       CLEAR     32  17  54 CALM      30.10S
BENTONVILLE    CLEAR     36  18  48 SE5       30.09F
ROGERS         CLEAR     33  17  51 SE3       30.10R
SILOAM SPGS    CLEAR     32  14  47 SE5       30.10R WCI  27
HIGHFILL       CLEAR     32  16  51 CALM      30.09R
$$

ARZ004-005-016-260500-
NORTH CENTRAL ARKANSAS

CITY           SKY/WX    TMP DP  RH WIND       PRES   REMARKS
BATESVILLE     CLEAR     34  21  60 CALM      30.16S
FLIPPIN        CLEAR     32  18  55 CALM      30.11R
MTN HOME       CLEAR     37  14  38 CALM      30.11S
$$

ARZ040-041-260500-
WEST CENTRAL ARKANSAS

CITY           SKY/WX    TMP DP  RH WIND       PRES   REMARKS
MENA           CLEAR     34  25  69 CALM      30.11S
MOUNT IDA      CLEAR     33  24  69 CALM      30.10R HAZE
$$

ARZ009-017-025-026-028-260500-
NORTHEAST ARKANSAS

CITY           SKY/WX    TMP DP  RH WIND       PRES   REMARKS
CORNING        CLOUDY    36  25  64 CALM      30.17R
JONESBORO      CLEAR     32  25  75 CALM      30.16R
NEWPORT        CLEAR     34  28  79 E6        30.17R WCI  29
WALNUT RIDGE   PTCLDY    37  16  41 N3        30.16R
BLYTHEVILLE    CLEAR     34  26  72 SW6       30.17R WCI  29
$$

ARZ022-023-033-042-044-260500-
CENTRAL ARKANSAS

CITY           SKY/WX    TMP DP  RH WIND       PRES   REMARKS
LITTLE ROCK    CLEAR     36  27  69 CALM      30.16R
N LITTLE ROCK    N/A     40  21  46 CALM      30.17R
JACKSONVILLE   CLEAR     34  28  80 CALM      30.14S
SEARCY         CLEAR     31  29  92 CALM      30.18R
HOT SPRINGS    CLEAR     37  27  67 CALM      30.13R
RUSSELLVILLE   CLEAR     32  26  78 S3        30.13R
CLINTON        CLOUDY    30  25  80 CALM      30.15S
$$

ARZ036-260500-
EAST ARKANSAS

CITY           SKY/WX    TMP DP  RH WIND       PRES   REMARKS
WEST MEMPHIS   CLEAR     36  29  75 CALM      30.16R
$$

ARZ050-053-066-070-073-260500-
SOUTHWEST ARKANSAS

CITY           SKY/WX    TMP DP  RH WIND       PRES   REMARKS
ARKADELPHIA    FAIR      37  33  85 CALM      30.15S
CAMDEN         CLEAR     36  32  87 CALM      30.15S
TEXARKANA      CLEAR     44  21  40 SE5       30.13R
EL DORADO      CLEAR     37  33  85 CALM      30.14S
DE QUEEN       CLEAR     33  32  96 CALM      30.11S
$$

ARZ056-057-069-260500-
SOUTHEAST ARKANSAS

CITY           SKY/WX    TMP DP  RH WIND       PRES   REMARKS
PINE BLUFF     CLEAR     40  30  67 SE3       30.16S
STUTTGART      CLEAR     43  25  49 SE5       30.17R
MONTICELLO     CLEAR     39  29  67 CALM      30.16S

$$





USA.gov is the U.S. government's official web portal to all federal, state and local government web resources and services.